Time,TemperatureF,DewpointF,PressureIn,WindDirection,WindDirectionDegrees,WindSpeedMPH,WindSpeedGustMPH,Humidity,HourlyPrecipIn,Conditions,Clouds,dailyrainin,SolarRadiationWatts/m^2,SoftwareType,DateUTC
2013-04-27 00:02:00,60.0,3.0,-100.00,ESE,118,2.0,6.0,10,0.00,,,0.00,0.000000,,2013-04-27 06:02:00,
2013-04-27 00:12:00,60.0,3.0,-100.00,ESE,118,2.0,6.0,10,0.00,,,0.00,0.000000,,2013-04-27 06:12:00,
2013-04-27 00:22:00,60.0,3.0,-100.00,ESE,118,2.0,6.0,10,0.00,,,0.00,0.000000,,2013-04-27 06:22:00,
2013-04-27 00:52:00,59.0,6.0,-100.00,East,83,5.0,7.0,12,0.00,,,0.00,0.000000,,2013-04-27 06:52:00,
2013-04-27 01:01:00,59.0,6.0,-100.00,East,83,5.0,7.0,12,0.00,,,0.00,0.000000,,2013-04-27 07:01:00,
2013-04-27 01:11:00,59.0,6.0,-100.00,East,83,5.0,7.0,12,0.00,,,0.00,0.000000,,2013-04-27 07:11:00,
2013-04-27 01:21:00,59.0,6.0,-100.00,East,83,5.0,7.0,12,0.00,,,0.00,0.000000,,2013-04-27 07:21:00,
2013-04-27 01:52:00,60.0,5.0,-100.00,ESE,106,6.0,9.0,11,0.00,,,0.00,0.000000,,2013-04-27 07:52:00,
2013-04-27 02:01:00,60.0,5.0,-100.00,ESE,106,6.0,9.0,11,0.00,,,0.00,0.000000,,2013-04-27 08:01:00,
2013-04-27 02:11:00,60.0,5.0,-100.00,ESE,106,6.0,9.0,11,0.00,,,0.00,0.000000,,2013-04-27 08:11:00,
2013-04-27 02:21:00,60.0,5.0,-100.00,ESE,106,6.0,9.0,11,0.00,,,0.00,0.000000,,2013-04-27 08:21:00,
2013-04-27 02:52:00,61.0,8.0,-100.00,ESE,111,18.0,26.0,12,0.00,,,0.00,0.000000,,2013-04-27 08:52:00,
2013-04-27 03:01:00,61.0,8.0,-100.00,ESE,111,18.0,26.0,12,0.00,,,0.00,0.000000,,2013-04-27 09:01:00,
2013-04-27 03:11:00,61.0,8.0,-100.00,ESE,111,18.0,26.0,12,0.00,,,0.00,0.000000,,2013-04-27 09:11:00,
2013-04-27 03:21:00,61.0,8.0,-100.00,ESE,111,18.0,26.0,12,0.00,,,0.00,0.000000,,2013-04-27 09:21:00,
2013-04-27 03:53:00,61.0,22.0,-100.00,East,100,21.0,31.0,22,0.00,,,0.00,0.000000,,2013-04-27 09:53:00,
2013-04-27 04:02:00,61.0,22.0,-100.00,East,100,21.0,31.0,22,0.00,,,0.00,0.000000,,2013-04-27 10:02:00,
2013-04-27 04:12:00,61.0,22.0,-100.00,East,100,21.0,31.0,22,0.00,,,0.00,0.000000,,2013-04-27 10:12:00,
2013-04-27 04:22:00,61.0,22.0,-100.00,East,100,21.0,31.0,22,0.00,,,0.00,0.000000,,2013-04-27 10:22:00,
2013-04-27 04:52:00,59.0,21.0,-100.00,East,100,24.0,33.0,23,0.00,,,0.00,0.000000,,2013-04-27 10:52:00,
2013-04-27 05:02:00,59.0,21.0,-100.00,East,100,24.0,33.0,23,0.00,,,0.00,0.000000,,2013-04-27 11:02:00,
2013-04-27 05:12:00,59.0,21.0,-100.00,East,100,24.0,33.0,23,0.00,,,0.00,0.000000,,2013-04-27 11:12:00,
2013-04-27 05:22:00,59.0,21.0,-100.00,East,100,24.0,33.0,23,0.00,,,0.00,0.000000,,2013-04-27 11:22:00,
2013-04-27 05:52:00,58.0,22.0,-100.00,East,94,25.0,38.0,25,0.00,,,0.00,0.000000,,2013-04-27 11:52:00,
2013-04-27 06:01:00,58.0,22.0,-100.00,East,94,25.0,38.0,25,0.00,,,0.00,0.000000,,2013-04-27 12:01:00,
2013-04-27 06:11:00,58.0,22.0,-100.00,East,94,25.0,38.0,25,0.00,,,0.00,0.000000,,2013-04-27 12:11:00,
2013-04-27 06:21:00,58.0,22.0,-100.00,East,94,25.0,38.0,25,0.00,,,0.00,0.000000,,2013-04-27 12:21:00,
2013-04-27 06:52:00,57.0,21.0,-100.00,ENE,77,24.0,39.0,24,0.00,,,0.00,0.000000,,2013-04-27 12:52:00,
2013-04-27 07:02:00,57.0,21.0,-100.00,ENE,77,24.0,39.0,24,0.00,,,0.00,0.000000,,2013-04-27 13:02:00,
2013-04-27 07:11:00,57.0,21.0,-100.00,ENE,77,24.0,39.0,24,0.00,,,0.00,0.000000,,2013-04-27 13:11:00,
2013-04-27 07:21:00,57.0,21.0,-100.00,ENE,77,24.0,39.0,24,0.00,,,0.00,0.000000,,2013-04-27 13:21:00,
2013-04-27 07:52:00,58.0,20.0,-100.00,East,92,22.0,37.0,23,0.00,,,0.00,19.000000,,2013-04-27 13:52:00,
2013-04-27 08:02:00,58.0,20.0,-100.00,East,92,22.0,37.0,23,0.00,,,0.00,19.000000,,2013-04-27 14:02:00,
2013-04-27 08:11:00,58.0,20.0,-100.00,East,92,22.0,37.0,23,0.00,,,0.00,19.000000,,2013-04-27 14:11:00,
2013-04-27 08:21:00,58.0,20.0,-100.00,East,92,22.0,37.0,23,0.00,,,0.00,19.000000,,2013-04-27 14:21:00,
2013-04-27 08:52:00,61.0,20.0,-100.00,East,96,14.0,30.0,20,0.00,,,0.00,229.000000,,2013-04-27 14:52:00,
2013-04-27 09:01:00,61.0,20.0,-100.00,East,96,14.0,30.0,20,0.00,,,0.00,229.000000,,2013-04-27 15:01:00,
2013-04-27 09:12:00,61.0,20.0,-100.00,East,96,14.0,30.0,20,0.00,,,0.00,229.000000,,2013-04-27 15:12:00,
2013-04-27 09:22:00,61.0,20.0,-100.00,East,96,14.0,30.0,20,0.00,,,0.00,229.000000,,2013-04-27 15:22:00,
2013-04-27 09:53:00,67.0,19.0,-100.00,NW,306,4.0,22.0,16,0.00,,,0.00,614.000000,,2013-04-27 15:53:00,
2013-04-27 10:03:00,67.0,19.0,-100.00,NW,306,4.0,22.0,16,0.00,,,0.00,614.000000,,2013-04-27 16:03:00,
2013-04-27 10:13:00,67.0,19.0,-100.00,NW,306,4.0,22.0,16,0.00,,,0.00,614.000000,,2013-04-27 16:13:00,
2013-04-27 10:22:00,67.0,19.0,-100.00,NW,306,4.0,22.0,16,0.00,,,0.00,614.000000,,2013-04-27 16:22:00,
2013-04-27 10:53:00,71.0,19.0,-100.00,South,171,2.0,11.0,14,0.00,,,0.00,869.000000,,2013-04-27 16:53:00,
2013-04-27 11:02:00,71.0,19.0,-100.00,South,171,2.0,11.0,14,0.00,,,0.00,869.000000,,2013-04-27 17:02:00,
2013-04-27 11:12:00,71.0,19.0,-100.00,South,171,2.0,11.0,14,0.00,,,0.00,869.000000,,2013-04-27 17:12:00,
2013-04-27 11:22:00,71.0,19.0,-100.00,South,171,2.0,11.0,14,0.00,,,0.00,869.000000,,2013-04-27 17:22:00,
2013-04-27 11:53:00,71.0,16.0,-100.00,South,191,7.0,14.0,12,0.00,,,0.00,1074.000000,,2013-04-27 17:53:00,
2013-04-27 12:02:00,71.0,16.0,-100.00,South,191,7.0,14.0,12,0.00,,,0.00,1074.000000,,2013-04-27 18:02:00,
2013-04-27 12:12:00,71.0,16.0,-100.00,South,191,7.0,14.0,12,0.00,,,0.00,1074.000000,,2013-04-27 18:12:00,
2013-04-27 12:22:00,71.0,16.0,-100.00,South,191,7.0,14.0,12,0.00,,,0.00,1074.000000,,2013-04-27 18:22:00,
2013-04-27 12:52:00,72.0,17.0,-100.00,West,280,6.0,12.0,12,0.00,,,0.00,1202.000000,,2013-04-27 18:52:00,
2013-04-27 13:02:00,72.0,17.0,-100.00,West,280,6.0,12.0,12,0.00,,,0.00,1202.000000,,2013-04-27 19:02:00,
2013-04-27 13:11:00,72.0,17.0,-100.00,West,280,6.0,12.0,12,0.00,,,0.00,1202.000000,,2013-04-27 19:11:00,
2013-04-27 13:21:00,72.0,17.0,-100.00,West,280,6.0,12.0,12,0.00,,,0.00,1202.000000,,2013-04-27 19:21:00,
2013-04-27 13:53:00,74.0,14.0,-100.00,West,277,7.0,16.0,10,0.00,,,0.00,1257.000000,,2013-04-27 19:53:00,
2013-04-27 14:02:00,74.0,14.0,-100.00,West,277,7.0,16.0,10,0.00,,,0.00,1257.000000,,2013-04-27 20:02:00,
2013-04-27 14:11:00,74.0,14.0,-100.00,West,277,7.0,16.0,10,0.00,,,0.00,1257.000000,,2013-04-27 20:11:00,
2013-04-27 14:21:00,74.0,14.0,-100.00,West,277,7.0,16.0,10,0.00,,,0.00,1257.000000,,2013-04-27 20:21:00,
2013-04-27 14:52:00,77.0,11.0,-100.00,ESE,113,6.0,17.0,8,0.00,,,0.00,1225.000000,,2013-04-27 20:52:00,
2013-04-27 15:02:00,77.0,11.0,-100.00,ESE,113,6.0,17.0,8,0.00,,,0.00,1225.000000,,2013-04-27 21:02:00,
2013-04-27 15:12:00,77.0,11.0,-100.00,ESE,113,6.0,17.0,8,0.00,,,0.00,1225.000000,,2013-04-27 21:12:00,
2013-04-27 15:21:00,77.0,11.0,-100.00,ESE,113,6.0,17.0,8,0.00,,,0.00,1225.000000,,2013-04-27 21:21:00,
2013-04-27 15:53:00,76.0,4.0,-100.00,SW,227,11.0,20.0,6,0.00,,,0.00,1175.000000,,2013-04-27 21:53:00,
2013-04-27 16:02:00,76.0,4.0,-100.00,SW,227,11.0,20.0,6,0.00,,,0.00,1175.000000,,2013-04-27 22:02:00,
2013-04-27 16:13:00,76.0,4.0,-100.00,SW,227,11.0,20.0,6,0.00,,,0.00,1175.000000,,2013-04-27 22:13:00,
2013-04-27 16:22:00,76.0,4.0,-100.00,SW,227,11.0,20.0,6,0.00,,,0.00,1175.000000,,2013-04-27 22:22:00,
2013-04-27 16:53:00,76.0,4.0,-100.00,WNW,282,9.0,24.0,6,0.00,,,-99.99,978.000000,,2013-04-27 22:53:00,
2013-04-27 17:02:00,76.0,4.0,-100.00,WNW,282,9.0,24.0,6,0.00,,,-99.99,978.000000,,2013-04-27 23:02:00,
2013-04-27 17:11:00,76.0,4.0,-100.00,WNW,282,9.0,24.0,6,0.00,,,-99.99,978.000000,,2013-04-27 23:11:00,
2013-04-27 17:22:00,76.0,4.0,-100.00,WNW,282,9.0,24.0,6,0.00,,,-99.99,978.000000,,2013-04-27 23:22:00,
2013-04-27 17:52:00,76.0,0.0,-100.00,WNW,290,7.0,19.0,5,0.00,,,0.00,744.000000,,2013-04-27 23:52:00,
2013-04-27 18:01:00,76.0,0.0,-100.00,WNW,290,7.0,19.0,5,0.00,,,0.00,744.000000,,2013-04-28 00:01:00,
2013-04-27 18:11:00,76.0,0.0,-100.00,WNW,290,7.0,19.0,5,0.00,,,0.00,744.000000,,2013-04-28 00:11:00,
2013-04-27 18:21:00,76.0,0.0,-100.00,WNW,290,7.0,19.0,5,0.00,,,0.00,744.000000,,2013-04-28 00:21:00,
2013-04-27 18:52:00,77.0,8.0,-100.00,West,270,6.0,15.0,7,0.00,,,0.00,453.000000,,2013-04-28 00:52:00,
2013-04-27 19:01:00,77.0,8.0,-100.00,West,270,6.0,15.0,7,0.00,,,0.00,453.000000,,2013-04-28 01:01:00,
2013-04-27 19:11:00,77.0,8.0,-100.00,West,270,6.0,15.0,7,0.00,,,0.00,453.000000,,2013-04-28 01:11:00,
2013-04-27 19:21:00,77.0,8.0,-100.00,West,270,6.0,15.0,7,0.00,,,0.00,453.000000,,2013-04-28 01:21:00,
2013-04-27 19:52:00,70.0,6.0,-100.00,West,273,5.0,14.0,8,0.00,,,0.00,153.000000,,2013-04-28 01:52:00,
2013-04-27 20:02:00,70.0,6.0,-100.00,West,273,5.0,14.0,8,0.00,,,0.00,153.000000,,2013-04-28 02:02:00,
2013-04-27 20:12:00,70.0,6.0,-100.00,West,273,5.0,14.0,8,0.00,,,0.00,153.000000,,2013-04-28 02:12:00,
2013-04-27 20:22:00,70.0,6.0,-100.00,West,273,5.0,14.0,8,0.00,,,0.00,153.000000,,2013-04-28 02:22:00,
2013-04-27 20:52:00,67.0,6.0,-100.00,NNE,16,1.0,13.0,9,0.00,,,0.00,4.000000,,2013-04-28 02:52:00,
2013-04-27 21:01:00,67.0,6.0,-100.00,NNE,16,1.0,13.0,9,0.00,,,0.00,4.000000,,2013-04-28 03:01:00,
2013-04-27 21:11:00,67.0,6.0,-100.00,NNE,16,1.0,13.0,9,0.00,,,0.00,4.000000,,2013-04-28 03:11:00,
2013-04-27 21:21:00,67.0,6.0,-100.00,NNE,16,1.0,13.0,9,0.00,,,0.00,4.000000,,2013-04-28 03:21:00,
2013-04-27 21:53:00,64.0,8.0,-100.00,East,83,4.0,7.0,11,0.00,,,0.00,0.000000,,2013-04-28 03:53:00,
2013-04-27 22:03:00,64.0,8.0,-100.00,East,83,4.0,7.0,11,0.00,,,0.00,0.000000,,2013-04-28 04:03:00,
2013-04-27 22:13:00,64.0,8.0,-100.00,East,83,4.0,7.0,11,0.00,,,0.00,0.000000,,2013-04-28 04:13:00,
2013-04-27 22:22:00,64.0,8.0,-100.00,East,83,4.0,7.0,11,0.00,,,0.00,0.000000,,2013-04-28 04:22:00,
2013-04-27 22:53:00,66.0,10.0,-100.00,ENE,69,7.0,8.0,11,0.00,,,0.00,0.000000,,2013-04-28 04:53:00,
2013-04-27 23:02:00,66.0,10.0,-100.00,ENE,69,7.0,8.0,11,0.00,,,0.00,0.000000,,2013-04-28 05:02:00,
2013-04-27 23:12:00,66.0,10.0,-100.00,ENE,69,7.0,8.0,11,0.00,,,0.00,0.000000,,2013-04-28 05:12:00,
2013-04-27 23:22:00,66.0,10.0,-100.00,ENE,69,7.0,8.0,11,0.00,,,0.00,0.000000,,2013-04-28 05:22:00,
2013-04-27 23:52:00,64.0,8.0,-100.00,East,79,7.0,11.0,11,0.00,,,0.00,0.000000,,2013-04-28 05:52:00,